Regional Weather Roundup
Issued by NWS

Home | Current Version | Previous Version | Graphics & Text | Print | Product List | Glossary On
Versions: 1 2 3 4 5 6 7 8 9 10 11 12 13 14 15 16 17 18 19 20 21 22 23 24 25 26 27 28 29 30 31 32 33 34 35 36 37 38 39 40 41 42 43 44 45 46 47 48 49 50
000
ASUS43 KDMX 221307
RWRIA

WEATHER ROUNDUP FOR IOWA
NATIONAL WEATHER SERVICE DES MOINES IA
800 AM CDT TUE JUL 22 2014

NOTE: "FAIR" INDICATES FEW OR NO CLOUDS BELOW 12,000 FEET WITH NO
SIGNIFICANT WEATHER AND/OR OBSTRUCTIONS TO VISIBILITY.

* - THESE STATIONS ARE NOT NWS STATIONS...THUS NOT UNDER NWS
QUALITY CONTROL.  THEY ALSO DO NOT REPORT WEATHER SUCH
AS PRECIPITATION OR FOG.

IAZ001>003-012>014-020>022-031>034-043>046-221400-
   NORTHWEST IOWA

CITY           SKY/WX    TMP DP  RH WIND       PRES   REMARKS
CARROLL *      MOSUNNY   81  75  83 W6        29.99R HX  86
CHEROKEE *     SUNNY     75  66  73 N14       29.98F
DENISON *      PTSUNNY   79  75  89 NW9       29.98R HX  82
LE MARS *      SUNNY     75  64  69 NE13G21   29.96F
ORANGE CITY *  SUNNY     73  63  68 NE8       29.98F
SHELDON *      SUNNY     72  64  78 NE9G16    29.97F
SIOUX CITY     MOSUNNY   80  63  55 NE10      29.95F HX  81
SPENCER        MOSUNNY   73  65  75 N15       30.01S
STORM LAKE *   SUNNY     75  68  78 N15       30.01R
$$

IAZ055>058-069>071-079>083-090>094-221400-
   SOUTHWEST IOWA

CITY           SKY/WX    TMP DP  RH WIND       PRES   REMARKS
ATLANTIC *     SUNNY     77  73  88 SW10      29.97R FOG
AUDUBON *      SUNNY     79  75  89 NW3       30.00R HX  82
CLARINDA *     SUNNY     77  75  94 S8        29.99S
COUNCIL BLFS * SUNNY     79  73  83 W6        29.97R HX  82
CRESTON *      SUNNY     77  75  94 SW9G18    29.98R FOG
HARLAN  *      SUNNY     77  75  94 SW5       30.01R
LAMONI         CLOUDY    77  74  90 S17       29.98F
RED OAK *      MOSUNNY   77  75  94 S6        29.98R FOG
SHENANDOAH *   SUNNY     79  75  89 SW7       29.98R HX  82
$$

IAZ047>049-059>061-072>074-084-221400-
   CENTRAL IOWA

CITY           SKY/WX    TMP DP  RH WIND       PRES   REMARKS
AMES           PTSUNNY   81  75  82 S7        29.93R HX  87
ANKENY *       SUNNY     79  75  89 SW8G15    29.93R HX  82
CHARITON *     SUNNY     79  75  89 SW16      29.95F HX  82
DES MOINES     CLOUDY    80  74  81 SW10      29.93S HX  85
GRINNELL*      PTSUNNY   81  73  78 S13G18    29.91F HX  85
KNOXVILLE *    SUNNY     79  73  83 SW13      29.92F HX  82
MARSHALLTOWN   MOSUNNY   80  75  84 SW10      29.91F HX  85
PELLA *        CLOUDY    79  73  83 SW12G20   29.94S HX  82
PERRY *          N/A     81  75  83 SW7       29.96R HX  86
$$

IAZ004>006-015-016-023>025-035-036-221400-
   NORTH CENTRAL IOWA

CITY           SKY/WX    TMP DP  RH WIND       PRES   REMARKS
ALGONA *       SUNNY     75  66  73 N16G25    30.00R
CLARION *      PTSUNNY   77  75  94 NW12      29.99R
ESTHERVILLE    MOSUNNY   71  65  81 N15       30.01F
FORT DODGE *   CLOUDY    79  73  83 N7        29.99R HX  82
MASON CITY     CLOUDY    77  75  93 NW20G25   29.98R FOG
FOREST CITY *  CLOUDY    77  72  83 NE22G32   29.98R
IOWA FALLS *     N/A     81  73  78 SW8       29.94R HX  85
$$

IAZ007>011-017>019-026>030-037>042-050>054-066-221400-
   NORTHEAST IOWA

CITY           SKY/WX    TMP DP  RH WIND       PRES   REMARKS
CEDAR RAPIDS   MOSUNNY   77  70  79 S13       29.93F
CHARLES CITY * PTSUNNY   79  75  89 SW8       29.93S FOG     HX  82
DECORAH *      PTSUNNY   77  72  83 SW6G14    29.92S
DUBUQUE        MOSUNNY   74  69  85 SW17      29.95S
MONTICELLO *   SUNNY     77  70  78 S9        29.94S
OELWEIN *      SUNNY     77  73  88 SW9       29.94S
WATERLOO       SUNNY     80  73  79 SW10      29.90R HX  84
$$

IAZ064-065-067-068-078-221400-
   EAST CENTRAL IOWA

CITY           SKY/WX    TMP DP  RH WIND       PRES   REMARKS
DAVENPORT      PTSUNNY   76  68  76 S14       29.98S
IOWA CITY      MOSUNNY   78  71  79 S9        29.97R HX  80
MT. PLEASANT * HVY RAIN  73  70  88 W5        30.04R
MUSCATINE *    CLOUDY    77  70  78 S10G22    29.97F
QUAD CITIES    MOSUNNY   77  68  73 SW10      29.99R
$$

IAZ062-063-075>077-085>089-095>099-221400-
   SOUTHEAST IOWA

CITY           SKY/WX    TMP DP  RH WIND       PRES   REMARKS
BURLINGTON     MOSUNNY   74  68  81 SW8G17    30.01R
FAIRFIELD *    LGT RAIN  73  70  88 SW17G26   29.95F
FORT MADISON * MOSUNNY   75  70  83 S9        30.02R
KEOKUK *       SUNNY     73  68  83 SW12G20   30.00S
OSKALOOSA *      N/A     79  73  83 SW14      29.96S HX  82
CENTERVILLE *  SUNNY     75  73  94 S12       30.00S
OTTUMWA        CLOUDY    76  72  87 S13       29.95F
WASHINGTON *   PTSUNNY   73  72  94 S17       29.98R
$$

ABBREVIATIONS USED IN REMARKS
   TC - TEMPERATURES IN CELSIUS
  WCI - WIND CHILL INDEX
   HX - HEAT INDEX
  VSB - VISIBILITY
$$



USA.gov is the U.S. government's official web portal to all federal, state and local government web resources and services.